Weather History for K0VG - December, 2012

Change the Weather History Date:

Tuesday, December 4, 2012

  Actual Average (KLOZ) Record (KLOZ)
Temperature  
Mean Temperature 54 °F 41 °F  
Max Temperature 68 °F 51 °F 77 °F (1982)
Min Temperature 39 °F 32 °F 13 °F (2000)
Degree Days  
Heating Degree Days 12 24  
Month to date heating degree days 93  
Since 1 July heating degree days 923  
Cooling Degree Days 0 0  
Month to date cooling degree days 0  
Growing Degree Days 4 (Base 50)    
Moisture  
Dew Point 46 °F    
Average Humidity 81    
Maximum Humidity 100    
Minimum Humidity 52    
Precipitation  
Precipitation 0.00 in 0.14 in 2.28 in (1993)
Month to date precipitation 0.57  
Sea Level Pressure  
Sea Level Pressure 30.24 in    
Wind  
Wind Speed 1 mph (WSW)    
Max Wind Speed 14 mph    
Max Gust Speed 22 mph    
Visibility 10 miles    
Events Rain    
T = Trace of Precipitation, MM = Missing Value Source: NWS Daily Summary

Daily Weather History Graph

Daily Weather History Graph

Search for Another Location

Airport or City:

Trip Planner

Search our weather history database for the weather conditions in past years. The results will help you decide how hot, cold, wet, or windy it might be!

Date:

Astronomy

Dec. 04, 2012 Rise Set
Actual Time 7:29 AM EST 5:16 PM EST
Civil Twilight 7:01 AM EST 5:45 PM EST
Nautical Twilight 6:29 AM EST 6:17 PM EST
Astronomical Twilight 5:57 AM EST 6:48 PM EST
Moon 10:57 PM EST (12/4) 11:28 AM EST (12/4)
Length of Visible Light 10h 44m
Length of Day
9h 47m
Waning Gibbous, 69% of the Moon is Illuminated
Dec 4
Waning Gibbous
Dec 6
Last Quarter
Dec 13
New
Dec 20
First Quarter
Dec 28
Full

Hourly Weather History & Observations

Time (EST) Temp. Dew Point Humidity Pressure Visibility Wind Dir Wind Speed Gust Speed Precip Events Conditions
12:15 AM 42.8 °F 42.8 °F 100% 30.27 in 10.0 mi Calm Calm - N/A   Unknown
12:35 AM 44.6 °F 42.8 °F 93% 30.27 in 10.0 mi Calm Calm - N/A   Unknown
12:55 AM 42.8 °F 42.8 °F 100% 30.26 in 10.0 mi Calm Calm - N/A   Unknown
1:15 AM 41.0 °F 41.0 °F 100% 30.26 in 9.0 mi Calm Calm - N/A   Unknown
1:35 AM 41.0 °F 41.0 °F 100% 30.26 in 9.0 mi Calm Calm - N/A   Unknown
1:55 AM 41.0 °F 41.0 °F 100% 30.26 in 8.0 mi Calm Calm - N/A   Unknown
2:15 AM 39.2 °F 39.2 °F 100% 30.27 in 8.0 mi Calm Calm - N/A   Unknown
2:35 AM 41.0 °F 41.0 °F 100% 30.27 in 8.0 mi Calm Calm - N/A   Unknown
2:55 AM 39.2 °F 39.2 °F 100% 30.27 in 8.0 mi Calm Calm - N/A   Unknown
3:15 AM 39.2 °F 39.2 °F 100% 30.27 in 7.0 mi Calm Calm - N/A   Unknown
3:35 AM 41.0 °F 41.0 °F 100% 30.27 in 6.0 mi Calm Calm - N/A   Mist
3:55 AM 41.0 °F 41.0 °F 100% 30.27 in 6.0 mi Calm Calm - N/A   Mist
4:15 AM 41.0 °F 41.0 °F 100% 30.27 in 10.0 mi Calm Calm - N/A   Unknown
4:35 AM 39.2 °F 39.2 °F 100% 30.27 in 10.0 mi Calm Calm - N/A   Unknown
4:55 AM 39.2 °F 39.2 °F 100% 30.27 in 9.0 mi Calm Calm - N/A   Unknown
5:15 AM 39.2 °F 39.2 °F 100% 30.27 in 8.0 mi Calm Calm - N/A   Unknown
5:35 AM 41.0 °F 39.2 °F 93% 30.27 in 10.0 mi Calm Calm - N/A   Unknown
5:55 AM 39.2 °F 39.2 °F 100% 30.27 in 9.0 mi Calm Calm - N/A   Unknown
6:15 AM 39.2 °F 39.2 °F 100% 30.27 in 8.0 mi Calm Calm - N/A   Unknown
6:35 AM 39.2 °F 39.2 °F 100% 30.28 in 7.0 mi Calm Calm - N/A   Unknown
6:55 AM 39.2 °F 39.2 °F 100% 30.28 in 9.0 mi Calm Calm - N/A   Unknown
7:15 AM 39.2 °F 39.2 °F 100% 30.29 in 10.0 mi Calm Calm - N/A   Unknown
7:35 AM 41.0 °F 39.2 °F 93% 30.29 in 9.0 mi Calm Calm - N/A   Unknown
7:55 AM 41.0 °F 41.0 °F 100% 30.30 in 10.0 mi Calm Calm - N/A   Scattered Clouds
8:15 AM 41.0 °F 41.0 °F 100% 30.30 in 8.0 mi Calm Calm - N/A   Scattered Clouds
8:35 AM 42.8 °F 41.0 °F 93% 30.30 in 10.0 mi Calm Calm - N/A   Scattered Clouds
8:55 AM 44.6 °F 42.8 °F 93% 30.30 in 10.0 mi Calm Calm - N/A   Partly Cloudy
9:15 AM 46.4 °F 44.6 °F 93% 30.30 in 10.0 mi Calm Calm - N/A   Partly Cloudy
9:55 AM 51.8 °F 46.4 °F 82% 30.31 in 10.0 mi Calm Calm - N/A   Mostly Cloudy
10:15 AM 53.6 °F 48.2 °F 82% 30.31 in 10.0 mi Calm Calm - N/A   Scattered Clouds
10:35 AM 57.2 °F 50.0 °F 77% 30.30 in - Calm Calm - N/A   Mostly Cloudy
10:55 AM - - N/A% 30.29 in 10.0 mi Calm Calm - N/A   Unknown
11:15 AM 60.8 °F 50.0 °F 68% 30.29 in 10.0 mi Calm Calm - N/A   Overcast
11:35 AM 62.6 °F 50.0 °F 63% 30.28 in 10.0 mi SSW 4.6 mph - N/A   Unknown
11:55 AM 64.4 °F 50.0 °F 59% 30.27 in 10.0 mi WSW 6.9 mph - N/A   Overcast
12:15 PM 64.4 °F 50.0 °F 59% 30.25 in 10.0 mi WSW 6.9 mph - N/A   Overcast
12:35 PM 64.4 °F 50.0 °F 59% 30.25 in 10.0 mi West 8.1 mph - N/A   Overcast
12:55 PM 66.2 °F 50.0 °F 56% 30.24 in 10.0 mi WSW 6.9 mph - N/A   Overcast
1:15 PM 68.0 °F 50.0 °F 52% 30.23 in 10.0 mi WSW 13.8 mph 18.4 mph N/A   Mostly Cloudy
1:35 PM 68.0 °F 50.0 °F 52% 30.22 in 10.0 mi WSW 12.7 mph 20.7 mph N/A   Overcast
1:55 PM 68.0 °F 50.0 °F 52% 30.21 in 10.0 mi SW 13.8 mph 21.9 mph N/A   Mostly Cloudy
2:15 PM 66.2 °F 50.0 °F 56% 30.21 in 10.0 mi SW 12.7 mph - N/A   Mostly Cloudy
2:35 PM 66.2 °F 50.0 °F 56% 30.21 in 10.0 mi WSW 13.8 mph 19.6 mph N/A   Mostly Cloudy
2:55 PM 66.2 °F 50.0 °F 56% 30.20 in 10.0 mi WSW 8.1 mph - N/A   Mostly Cloudy
3:15 PM 64.4 °F 50.0 °F 59% 30.20 in 10.0 mi WSW 4.6 mph - N/A   Mostly Cloudy
3:35 PM 66.2 °F 50.0 °F 56% 30.19 in 10.0 mi SSW 5.8 mph - N/A   Overcast
3:55 PM 66.2 °F 50.0 °F 56% 30.19 in 10.0 mi SW 8.1 mph - N/A   Overcast
4:15 PM 66.2 °F 50.0 °F 56% 30.19 in 10.0 mi WSW 5.8 mph - N/A   Mostly Cloudy
4:35 PM 64.4 °F 50.0 °F 59% 30.19 in 10.0 mi Calm Calm - N/A   Mostly Cloudy
4:55 PM 64.4 °F 50.0 °F 59% 30.19 in 10.0 mi Calm Calm - N/A Rain Light Rain
5:15 PM 62.6 °F 51.8 °F 68% 30.19 in 10.0 mi Calm Calm - N/A   Overcast
5:35 PM 62.6 °F 51.8 °F 68% 30.20 in 10.0 mi Calm Calm - N/A   Overcast
5:55 PM 62.6 °F 50.0 °F 63% 30.20 in 10.0 mi Calm Calm - N/A   Overcast
6:15 PM 62.6 °F 50.0 °F 63% 30.20 in 10.0 mi Calm Calm - N/A   Overcast
6:35 PM 59.0 °F 50.0 °F 72% 30.21 in 10.0 mi Calm Calm - N/A   Mostly Cloudy
6:55 PM 59.0 °F 51.8 °F 77% 30.21 in 10.0 mi Calm Calm - N/A   Overcast
7:15 PM 59.0 °F 50.0 °F 72% 30.21 in 10.0 mi Calm Calm - N/A   Overcast
7:35 PM 59.0 °F 50.0 °F 72% 30.22 in 10.0 mi Calm Calm - N/A   Overcast
7:55 PM 57.2 °F 53.6 °F 88% 30.21 in 10.0 mi Calm Calm - N/A   Overcast
8:15 PM 59.0 °F 51.8 °F 77% 30.21 in 10.0 mi Calm Calm - N/A   Overcast
8:35 PM 55.4 °F 51.8 °F 88% 30.21 in 10.0 mi Calm Calm - N/A   Overcast
8:55 PM 55.4 °F 51.8 °F 88% 30.20 in 10.0 mi Calm Calm - N/A   Overcast
9:15 PM 55.4 °F 51.8 °F 88% 30.20 in 10.0 mi Calm Calm - N/A   Overcast
9:35 PM 55.4 °F 50.0 °F 82% 30.20 in 10.0 mi Calm Calm - N/A   Overcast
9:55 PM 57.2 °F 50.0 °F 77% 30.19 in 10.0 mi Calm Calm - N/A   Overcast
10:15 PM 55.4 °F 50.0 °F 82% 30.19 in 10.0 mi Calm Calm - N/A   Overcast
10:35 PM 57.2 °F 50.0 °F 77% 30.18 in 10.0 mi Calm Calm - N/A   Overcast
10:55 PM 57.2 °F 50.0 °F 77% 30.18 in 10.0 mi Calm Calm - N/A   Overcast
11:15 PM 55.4 °F 50.0 °F 82% 30.18 in 10.0 mi Calm Calm - N/A   Overcast
11:35 PM 57.2 °F 50.0 °F 77% 30.18 in 10.0 mi Calm Calm - N/A   Overcast
11:55 PM 59.0 °F 50.0 °F 72% 30.18 in 10.0 mi WSW 4.6 mph - N/A   Overcast